Location: Newark
(46.7000°N, 60.6000°W)
Time: 21:39:02
(UTC+00:00)

Vanguard 1 Rocket - Pass Details

Date: 02 November 2020
Orbit: 656 x 4221 km, 34.3° (Epoch: 30 November)

Event Time Altitude Azimuth Distance (km) Brightness Sun altitude
Rises 15:40:32 0° 250° (WSW) 3,259 10.5 28.3°
Reaches altitude 10° 15:43:49 10° 230° (SW) 2,129 10.0 28.3°
Maximum altitude 15:46:49 17° 188° (S) 1,635 10.8 28.3°
Drops below altitude 10° 15:49:46 10° 146° (SSE) 2,095 10.3 28.3°
Sets 15:52:57 0° 126° (SE) 3,182 10.6 28.2°
